| time (UTC) | temp C | wind direction | speed KPH | gust KPH | rain 1hr cm | rain 24hr cm | rain mn cm | humidity % | barometer mb |
| 20260505034535 | -17 | 360 | 0.0 | 0.0 | 0.15 | 0.61 | 0.61 | 1011.8 | |
| 20260505033037 | 0 | 360 | 0.0 | 0.0 | 0.33 | 0.61 | 0.61 | 88 | 1012.1 |
| 20260505031533 | 0 | 360 | 0.0 | 0.0 | 0.51 | 0.61 | 0.61 | 88 | 1012.0 |
| 20260505030032 | 0 | 360 | 0.0 | 0.0 | 0.53 | 0.53 | 0.53 | 88 | 1011.9 |
| 20260505024531 | 1 | 360 | 0.0 | 8.0 | 0.46 | 0.46 | 0.46 | 90 | 1011.4 |
| 20260505023027 | 2 | 360 | 1.6 | 11.3 | 0.23 | 0.23 | 0.23 | 90 | 1011.5 |
| 20260505021529 | 3 | 360 | 0.0 | 9.7 | 0.08 | 0.08 | 0.08 | 90 | 1011.1 |
| 20260505020024 | 3 | 34 | 3.2 | 12.9 | 0.00 | 0.00 | 0.00 | 88 | 1010.5 |
| 20260505014521 | 5 | 49 | 4.8 | 12.9 | 0.00 | 0.00 | 0.00 | 81 | 1010.6 |
| 20260505013020 | 5 | 360 | 1.6 | 9.7 | 0.00 | 0.00 | 0.00 | 77 | 1010.1 |
| 20260505011524 | 6 | 72 | 0.0 | 6.4 | 0.00 | 0.00 | 0.00 | 77 | 1010.4 |
| 20260505010018 | 6 | 98 | 1.6 | 8.0 | 0.00 | 0.00 | 0.00 | 72 | 1010.1 |
| 20260505004522 | 6 | 101 | 0.0 | 11.3 | 0.00 | 0.00 | 0.00 | 71 | 1010.0 |
| 20260505003017 | 6 | 360 | 0.0 | 8.0 | 0.00 | 0.00 | 0.00 | 69 | 1010.0 |
| 20260505001517 | 7 | 111 | 1.6 | 11.3 | 0.00 | 0.00 | 0.00 | 72 | 1010.0 |
| 20260505000024 | 6 | 360 | 1.6 | 6.4 | 0.00 | 0.00 | 0.00 | 69 | 1010.0 |
| 20260504234516 | 6 | 28 | 0.0 | 6.4 | 0.00 | 0.00 | 0.00 | 70 | 1010.1 |
| 20260504233015 | 6 | 360 | 0.0 | 3.2 | 0.00 | 0.00 | 0.00 | 67 | 1009.9 |
| 20260504231515 | 6 | 360 | 1.6 | 8.0 | 0.00 | 0.00 | 0.00 | 67 | 1009.6 |
| 20260504230015 | 6 | 360 | 0.0 | 6.4 | 0.00 | 0.00 | 0.00 | 67 | 1009.3 |
| 20260504224519 | 7 | 334 | 0.0 | 4.8 | 0.00 | 0.00 | 0.00 | 69 | 1009.6 |
| 20260504223014 | 7 | 331 | 0.0 | 11.3 | 0.00 | 0.00 | 0.00 | 71 | 1010.0 |
| 20260504221512 | 7 | 360 | 1.6 | 11.3 | 0.00 | 0.00 | 0.00 | 62 | 1010.4 |
| 20260504220011 | 7 | 53 | 1.6 | 9.7 | 0.00 | 0.00 | 0.00 | 58 | 1009.6 |
| 20260504214518 | 8 | 32 | 0.0 | 12.9 | 0.00 | 0.00 | 0.00 | 53 | 1009.4 |
| 20260504213010 | 8 | 360 | 4.8 | 17.7 | 0.00 | 0.00 | 0.00 | 50 | 1009.0 |
| 20260504211521 | 11 | 32 | 6.4 | 17.7 | 0.00 | 0.00 | 0.00 | 41 | 1009.0 |
| 20260504210009 | 12 | 30 | 4.8 | 12.9 | 0.00 | 0.00 | 0.00 | 33 | 1008.6 |
| 20260504204515 | 13 | 360 | 3.2 | 12.9 | 0.00 | 0.00 | 0.00 | 31 | 1008.7 |
| 20260504203009 | 13 | 360 | 6.4 | 19.3 | 0.00 | 0.00 | 0.00 | 31 | 1009.0 |
| 20260504201505 | 12 | 360 | 1.6 | 19.3 | 0.00 | 0.00 | 0.00 | 37 | 1009.1 |
| 20260504200003 | 10 | 360 | 9.7 | 25.7 | 0.00 | 0.00 | 0.00 | 46 | 1009.4 |
| 20260504194503 | 10 | 360 | 14.5 | 33.8 | 0.00 | 0.00 | 0.00 | 47 | 1009.5 |
| 20260504193003 | 10 | 360 | 16.1 | 32.2 | 0.00 | 0.00 | 0.00 | 43 | 1009.5 |
| 20260504191502 | 11 | 360 | 16.1 | 32.2 | 0.00 | 0.00 | 0.00 | 43 | 1009.4 |
| 20260504190001 | 12 | 360 | 16.1 | 35.4 | 0.00 | 0.00 | 0.00 | 39 | 1009.5 |
| 20260504184631 | 13 | 360 | 9.7 | 32.2 | 0.00 | 0.00 | 0.00 | 37 | 1009.4 |
| 20260504183100 | 13 | 161 | 4.8 | 29.0 | 0.00 | 0.00 | 0.00 | 34 | 1009.5 |
| 20260504181559 | 12 | 314 | 6.4 | 19.3 | 0.00 | 0.00 | 0.00 | 35 | 1009.6 |
| 20260504180057 | 13 | 317 | 8.0 | 22.5 | 0.00 | 0.00 | 0.00 | 37 | 1009.7 |
| 20260504174554 | 12 | 294 | 8.0 | 19.3 | 0.00 | 0.00 | 0.00 | 38 | 1010.0 |
| 20260504173054 | 11 | 360 | 8.0 | 17.7 | 0.00 | 0.00 | 0.00 | 39 | 1010.2 |
| 20260504171553 | 11 | 319 | 6.4 | 17.7 | 0.00 | 0.00 | 0.00 | 41 | 1010.2 |
| 20260504110106 | 2 | 360 | 4.8 | 9.7 | 0.00 | 0.00 | 0.00 | 52 | 1010.9 |
| 20260504081538 | 4 | 360 | 4.8 | 11.3 | 0.00 | 0.00 | 0.00 | 47 | 1011.7 |
| 20260504050009 | 4 | 360 | 3.2 | 8.0 | 0.00 | 0.00 | 0.00 | 55 | 1013.4 |
| 20260504044507 | 5 | 360 | 3.2 | 8.0 | 0.00 | 0.00 | 0.00 | 54 | 1013.6 |
| 20260504043008 | 5 | 360 | 3.2 | 9.7 | 0.00 | 0.00 | 0.00 | 52 | 1013.7 |
| 20260504041505 | 6 | 360 | 3.2 | 8.0 | 0.00 | 0.00 | 0.00 | 50 | 1013.9 |
| 20260504040006 | 7 | 360 | 1.6 | 8.0 | 0.00 | 0.00 | 0.00 | 47 | 1014.1 |